TimeCDT,TemperatureF,Dew PointF,Humidity,Sea Level PressureIn,VisibilityMPH,Wind Direction,Wind SpeedMPH,Gust SpeedMPH,PrecipitationIn,Events,Conditions,WindDirDegrees,DateUTC
12:15 AM,64.4,56.5,75,30.09,10.0,ESE,3.5,-,N/A,,Clear,110,2013-07-13 05:15:00
12:35 AM,63.9,56.3,76,30.09,10.0,Calm,Calm,-,N/A,,Clear,0,2013-07-13 05:35:00
12:55 AM,63.9,56.1,76,30.09,10.0,Calm,Calm,-,N/A,,Clear,0,2013-07-13 05:55:00
1:15 AM,60.4,56.3,86,30.10,10.0,Calm,Calm,-,N/A,,Clear,0,2013-07-13 06:15:00
1:35 AM,59.0,55.8,89,30.10,10.0,Calm,Calm,-,N/A,,Clear,0,2013-07-13 06:35:00
1:55 AM,59.0,55.6,88,30.11,10.0,Calm,Calm,-,N/A,,Clear,0,2013-07-13 06:55:00
2:15 AM,58.6,55.6,90,30.11,10.0,Calm,Calm,-,N/A,,Clear,0,2013-07-13 07:15:00
2:35 AM,57.7,55.0,91,30.11,10.0,Calm,Calm,-,N/A,,Clear,0,2013-07-13 07:35:00
2:55 AM,56.7,54.5,92,30.11,10.0,Calm,Calm,-,N/A,,Clear,0,2013-07-13 07:55:00
3:15 AM,57.2,54.1,89,30.11,10.0,Calm,Calm,-,N/A,,Clear,0,2013-07-13 08:15:00
3:35 AM,56.5,54.1,92,30.11,10.0,East,4.6,-,N/A,,Clear,90,2013-07-13 08:35:00
3:55 AM,59.0,55.2,87,30.10,10.0,East,3.5,-,N/A,,Clear,100,2013-07-13 08:55:00
4:15 AM,59.7,54.5,83,30.09,10.0,Calm,Calm,-,N/A,,Clear,0,2013-07-13 09:15:00
4:35 AM,59.9,54.1,81,30.10,10.0,East,3.5,-,N/A,,Clear,100,2013-07-13 09:35:00
4:55 AM,60.6,54.1,79,30.11,10.0,ESE,3.5,-,N/A,,Clear,110,2013-07-13 09:55:00
5:15 AM,60.4,54.3,80,30.11,10.0,Calm,Calm,-,N/A,,Clear,0,2013-07-13 10:15:00
5:35 AM,60.1,54.5,82,30.11,10.0,East,3.5,-,N/A,,Clear,100,2013-07-13 10:35:00
5:55 AM,60.1,54.9,83,30.12,10.0,Calm,Calm,-,N/A,,Clear,0,2013-07-13 10:55:00
6:15 AM,60.8,55.4,82,30.12,10.0,East,3.5,-,N/A,,Scattered Clouds,100,2013-07-13 11:15:00
6:35 AM,61.7,56.3,82,30.11,10.0,Calm,Calm,-,N/A,,Scattered Clouds,0,2013-07-13 11:35:00
6:55 AM,64.2,57.7,79,30.13,10.0,Calm,Calm,-,N/A,,Scattered Clouds,0,2013-07-13 11:55:00
7:15 AM,66.2,58.8,77,30.14,10.0,Calm,Calm,-,N/A,,Scattered Clouds,0,2013-07-13 12:15:00
7:35 AM,66.9,59.7,78,30.13,10.0,ESE,3.5,-,N/A,,Scattered Clouds,110,2013-07-13 12:35:00
7:55 AM,68.0,59.9,75,30.14,10.0,ESE,4.6,-,N/A,,Clear,110,2013-07-13 12:55:00
8:15 AM,69.6,60.8,73,30.14,10.0,Calm,Calm,-,N/A,,Clear,0,2013-07-13 13:15:00
8:35 AM,72.3,60.1,65,30.15,10.0,Calm,Calm,-,N/A,,Clear,0,2013-07-13 13:35:00
8:55 AM,73.2,59.5,62,30.16,10.0,SSE,4.6,-,N/A,,Clear,150,2013-07-13 13:55:00
9:15 AM,74.1,61.0,63,30.15,10.0,SSE,5.8,-,N/A,,Scattered Clouds,150,2013-07-13 14:15:00
9:35 AM,74.5,61.0,63,30.14,10.0,SSE,5.8,-,N/A,,Clear,160,2013-07-13 14:35:00
9:55 AM,75.0,61.0,62,30.14,10.0,SSE,5.8,-,N/A,,Clear,160,2013-07-13 14:55:00
10:15 AM,75.7,61.0,60,30.14,10.0,SE,4.6,-,N/A,,Clear,130,2013-07-13 15:15:00
10:35 AM,76.3,59.7,56,30.14,10.0,SE,3.5,-,N/A,,Clear,130,2013-07-13 15:35:00
10:55 AM,77.0,59.2,54,30.14,10.0,ESE,3.5,-,N/A,,Clear,110,2013-07-13 15:55:00
11:15 AM,77.5,59.9,54,30.14,10.0,Calm,Calm,-,N/A,,Clear,0,2013-07-13 16:15:00
11:35 AM,78.4,58.1,50,30.14,10.0,ESE,5.8,-,N/A,,Clear,110,2013-07-13 16:35:00
11:55 AM,78.8,58.1,49,30.14,10.0,ESE,3.5,-,N/A,,Clear,110,2013-07-13 16:55:00
12:15 PM,78.8,58.3,49,30.13,10.0,Calm,Calm,-,N/A,,Clear,0,2013-07-13 17:15:00
12:35 PM,79.7,59.9,51,30.13,10.0,SE,3.5,-,N/A,,Clear,130,2013-07-13 17:35:00
12:55 PM,80.1,58.1,47,30.12,10.0,ESE,6.9,-,N/A,,Clear,120,2013-07-13 17:55:00
1:15 PM,80.6,59.5,49,30.12,10.0,ESE,4.6,-,N/A,,Clear,120,2013-07-13 18:15:00
1:35 PM,81.0,59.7,48,30.11,10.0,ESE,3.5,-,N/A,,Clear,120,2013-07-13 18:35:00
1:55 PM,81.1,57.7,45,30.11,10.0,ESE,5.8,-,N/A,,Clear,120,2013-07-13 18:55:00
2:15 PM,82.2,58.6,45,30.12,10.0,East,4.6,-,N/A,,Clear,80,2013-07-13 19:15:00
2:35 PM,82.6,58.8,44,30.12,10.0,SE,4.6,-,N/A,,Clear,140,2013-07-13 19:35:00
2:55 PM,83.1,58.6,43,30.11,10.0,East,6.9,-,N/A,,Scattered Clouds,90,2013-07-13 19:55:00
3:15 PM,83.3,58.1,42,30.11,10.0,East,3.5,-,N/A,,Clear,90,2013-07-13 20:15:00
3:35 PM,83.3,58.5,43,30.10,10.0,East,8.1,-,N/A,,Clear,100,2013-07-13 20:35:00
3:55 PM,82.2,57.6,43,30.10,10.0,East,5.8,-,N/A,,Scattered Clouds,80,2013-07-13 20:55:00
4:15 PM,81.7,59.2,46,30.10,10.0,East,8.1,-,N/A,,Mostly Cloudy,80,2013-07-13 21:15:00
4:35 PM,83.3,58.5,43,30.09,10.0,East,5.8,-,N/A,,Scattered Clouds,100,2013-07-13 21:35:00
4:55 PM,83.5,58.8,43,30.09,10.0,ESE,3.5,-,N/A,,Scattered Clouds,110,2013-07-13 21:55:00
5:15 PM,82.8,58.8,44,30.09,10.0,East,5.8,-,N/A,,Scattered Clouds,90,2013-07-13 22:15:00
5:35 PM,82.2,58.5,44,30.08,10.0,East,5.8,-,N/A,,Scattered Clouds,100,2013-07-13 22:35:00
5:55 PM,82.2,57.6,43,30.08,10.0,East,4.6,-,N/A,,Scattered Clouds,80,2013-07-13 22:55:00
6:15 PM,81.0,58.3,46,30.08,10.0,East,9.2,-,N/A,,Clear,80,2013-07-13 23:15:00
6:35 PM,81.3,57.4,44,30.09,10.0,East,9.2,-,N/A,,Clear,80,2013-07-13 23:35:00
6:55 PM,80.6,57.0,44,30.09,10.0,ENE,9.2,-,N/A,,Clear,70,2013-07-13 23:55:00
7:15 PM,79.9,57.0,45,30.08,10.0,East,8.1,-,N/A,,Clear,90,2013-07-14 00:15:00
7:35 PM,79.0,57.2,47,30.08,10.0,East,8.1,-,N/A,,Clear,80,2013-07-14 00:35:00
7:55 PM,77.2,57.2,50,30.08,10.0,East,4.6,-,N/A,,Clear,80,2013-07-14 00:55:00
8:15 PM,74.8,58.6,57,30.09,10.0,ENE,4.6,-,N/A,,Clear,70,2013-07-14 01:15:00
8:35 PM,74.3,58.5,58,30.09,10.0,ENE,4.6,-,N/A,,Clear,70,2013-07-14 01:35:00
8:55 PM,73.9,58.6,59,30.09,10.0,East,4.6,-,N/A,,Clear,80,2013-07-14 01:55:00
9:15 PM,73.6,59.0,60,30.10,10.0,East,5.8,-,N/A,,Clear,80,2013-07-14 02:15:00
9:35 PM,72.7,59.4,63,30.11,10.0,East,4.6,-,N/A,,Clear,90,2013-07-14 02:35:00
9:55 PM,72.0,59.7,65,30.11,10.0,East,4.6,-,N/A,,Clear,90,2013-07-14 02:55:00
10:15 PM,70.9,60.1,69,30.12,10.0,East,3.5,-,N/A,,Clear,90,2013-07-14 03:15:00
10:35 PM,70.7,60.1,69,30.12,10.0,East,3.5,-,N/A,,Clear,90,2013-07-14 03:35:00
10:55 PM,70.7,60.3,69,30.12,10.0,East,4.6,-,N/A,,Clear,90,2013-07-14 03:55:00
11:15 PM,70.3,60.3,70,30.12,10.0,East,3.5,-,N/A,,Clear,90,2013-07-14 04:15:00
11:35 PM,69.8,60.3,72,30.12,10.0,East,3.5,-,N/A,,Clear,100,2013-07-14 04:35:00
11:55 PM,69.3,60.3,73,30.12,10.0,Calm,Calm,-,N/A,,Clear,0,2013-07-14 04:55:00